Vorticity
nan nan nan nan nan nan nan nan nan nan nan nan nan nan nan nan nan nan nan nan nan nan nan nan nan nan nan nan nan nan nan nan nan nan nan nan nan nan nan nan nan nan nan nan
nan 11 22 9 5 12 6 7 3 1 10 4 18 4 9 10 10 5 8 10 7 8 8 7 10 3 7 7 5 6 5 5 6 6 6 8 10 10 8 7 9 8 7 nan
nan 11 16 4 5 10 8 1 8 0 16 21 9 6 8 8 8 9 8 10 10 7 5 11 8 10 9 7 6 5 4 8 7 6 5 5 7 9 10 10 9 9 8 nan
nan 13 5 4 9 2 9 13 3 6 12 14 7 12 9 13 10 8 12 4 6 4 8 17 10 10 10 8 6 7 9 6 6 9 7 7 6 6 9 9 7 10 11 nan
nan 10 10 15 17 -0 8 21 12 2 4 8 12 18 11 15 11 9 14 9 6 7 10 9 12 11 9 9 9 8 8 5 8 8 6 6 6 5 9 10 9 9 14 nan
nan 9 17 13 22 5 4 10 2 5 11 14 11 6 10 12 13 15 9 10 9 10 13 6 7 12 9 7 10 10 7 5 7 8 8 8 5 6 6 7 9 10 11 nan
nan 12 10 11 7 11 13 4 -3 6 11 7 5 10 11 6 10 11 13 8 5 10 11 6 10 10 9 8 6 8 9 7 8 9 8 8 8 8 8 7 8 9 8 nan
nan 14 13 7 10 8 8 12 14 10 6 3 10 11 11 9 10 13 13 8 7 11 7 9 7 9 8 8 7 6 6 8 9 8 9 9 8 7 10 8 8 12 7 nan
nan 11 9 11 11 2 4 13 14 3 11 14 4 5 12 22 16 16 13 10 10 6 8 9 10 9 8 10 8 8 5 6 9 8 8 9 8 7 9 11 12 13 12 nan
nan 8 6 15 2 16 16 0 4 10 8 9 10 14 19 20 17 14 8 6 17 6 6 11 12 7 8 9 9 10 10 7 6 7 7 9 11 9 4 11 14 11 12 nan
nan 6 7 11 11 11 -2 5 8 14 12 7 10 12 19 19 12 9 8 16 14 9 7 9 11 8 7 9 14 9 8 8 7 7 13 8 12 13 9 11 11 9 10 nan
nan 3 13 9 8 1 9 14 10 9 9 10 10 14 20 13 12 10 9 14 9 9 8 8 9 8 9 9 11 11 7 10 15 11 10 15 13 11 13 9 7 9 9 nan
nan 7 4 -2 10 14 11 17 11 7 12 9 5 17 18 7 13 10 13 11 7 7 10 10 8 10 11 9 11 12 10 9 14 18 11 9 9 8 7 9 9 10 10 nan
nan 15 13 6 5 7 9 19 16 -2 4 8 -3 15 16 9 9 11 12 11 7 8 11 9 10 13 14 13 10 11 15 14 11 10 9 9 9 8 9 9 8 10 9 nan
nan 10 8 14 15 3 6 11 12 4 10 12 12 2 9 13 12 13 10 6 10 10 7 10 10 11 11 13 12 11 9 9 9 9 9 9 9 9 9 9 9 9 10 nan
nan 10 10 9 19 18 9 6 4 15 6 10 16 9 16 9 19 15 8 9 7 7 10 9 8 8 9 9 9 9 8 8 8 8 9 8 8 8 8 7 8 9 9 nan
nan 13 10 10 11 9 9 15 3 22 15 2 3 2 13 29 16 6 8 8 6 11 11 7 6 6 7 9 10 9 9 8 8 8 8 7 8 8 8 8 7 9 9 nan
nan 12 11 12 7 7 13 15 15 12 -3 -2 8 11 15 19 10 7 9 5 11 11 6 7 7 8 10 9 9 9 8 9 8 9 7 8 10 9 9 9 9 8 9 nan
nan 11 15 12 6 8 14 10 17 9 14 7 4 5 14 19 8 7 7 10 14 10 8 8 9 9 10 9 8 8 8 9 9 7 8 10 8 8 9 10 10 8 8 nan
nan 13 10 9 16 6 7 9 12 13 19 17 11 18 15 10 1 11 11 13 13 9 10 11 8 8 10 9 9 8 9 9 9 9 9 9 10 10 10 9 8 9 10 nan
nan 14 9 12 12 9 13 12 8 10 20 26 8 9 7 12 12 17 11 11 10 8 10 9 9 9 8 9 8 8 9 8 9 10 9 9 11 11 9 10 10 10 9 nan
nan 5 10 13 11 14 12 16 7 -1 11 11 14 10 6 9 19 17 10 9 7 9 9 8 8 9 9 9 9 9 8 9 10 10 10 9 9 9 9 9 9 10 9 nan
nan 8 4 10 3 4 11 11 13 16 11 14 14 7 10 4 13 15 9 10 8 7 6 8 9 8 9 9 9 9 9 10 9 10 9 7 8 10 9 9 9 8 8 nan
nan 12 6 6 7 7 2 6 10 21 39 24 -3 7 9 10 14 18 10 8 9 9 9 9 9 8 8 8 10 11 11 9 8 8 7 8 9 8 9 9 9 11 10 nan
nan 14 12 4 7 11 11 11 10 13 22 21 14 24 4 4 27 23 9 9 9 9 9 10 7 9 9 8 11 11 9 8 8 8 8 8 7 7 7 12 14 12 13 nan
nan nan nan nan nan nan nan nan nan nan nan nan nan nan nan nan nan nan nan nan nan nan nan nan nan nan nan nan nan nan nan nan nan nan nan nan nan nan nan nan nan nan nan nan
CAPE
19 8 28 94 98 39 0 0 3 13 179 116 69 0 0 64 436 437 571 419 624 512 977 787 799 554 311 449 269 108 58 29 58 3 0 0 0 0 0 0 0 0 0 0
4 0 9 72 10 5 8 41 10 29 126 89 0 0 0 28 150 202 250 342 313 159 494 106 879 753 527 362 255 127 365 422 221 1 2 2 0 0 0 0 0 0 0 0
0 0 159 128 56 23 5 0 34 152 208 33 15 0 0 36 105 210 198 310 353 205 38 516 738 769 669 653 157 5 10 913 806 28 7 11 0 64 0 0 0 1 55 118
0 0 33 124 163 63 6 8 28 68 206 213 21 6 0 35 195 263 291 393 42 340 342 130 599 912 1127 1160 659 615 756 1185 871 865 141 181 31 142 94 2 208 477 889 1007
0 0 29 138 168 6 95 133 134 0 74 103 68 45 1 44 172 214 201 333 338 17 425 499 466 1134 1415 1641 1326 1446 1739 1403 1546 1151 1270 1112 878 677 645 476 660 622 1061 1553
0 0 1 59 100 51 131 220 13 93 135 0 6 16 129 20 18 107 176 151 260 199 410 533 747 1119 1672 1539 2156 2166 1793 1639 1582 1735 1710 1328 1064 933 755 790 992 898 1425 1606
0 0 4 27 74 95 43 46 40 45 137 96 0 10 12 4 19 18 138 177 269 266 478 396 741 1256 1552 1508 1863 2455 2158 2123 2267 2334 1866 1793 1432 1203 1310 1039 1421 1432 975 702
0 0 0 2 74 66 25 38 15 0 0 10 23 7 90 0 25 25 72 153 196 459 395 134 407 1234 1425 1494 1594 1999 2658 2637 2862 2337 2107 2329 1751 1934 1791 1727 1871 1833 1068 787
0 0 5 55 256 216 50 0 1 0 0 35 77 9 4 2 65 69 126 184 187 473 443 409 654 1222 1375 1731 1827 2059 2290 2514 2681 2353 2634 2350 2488 2634 2311 1782 1391 1266 1858 1558
0 0 0 65 155 84 1 6 12 12 40 22 4 2 0 71 66 6 127 144 264 540 685 746 1026 1192 1254 1689 1953 2191 2214 2319 2397 2436 2622 2913 3004 2805 2149 1786 1055 1516 1278 1619
0 0 0 13 26 53 0 0 15 6 0 0 40 41 0 60 44 31 73 92 219 582 674 620 858 1231 1176 1168 1838 2436 2612 2602 2338 2230 2412 2500 2243 1677 30 953 747 500 660 631
0 0 0 25 8 10 13 115 10 1 30 29 97 49 45 49 78 101 73 103 91 49 150 427 496 618 905 1130 2021 2390 2414 2535 2466 2331 2204 1507 1167 927 766 318 264 339 160 93
0 0 0 0 0 0 8 49 10 1 0 29 51 87 20 0 26 57 13 42 42 103 181 443 567 624 1128 1247 1499 1867 1727 2082 2691 2117 1329 779 433 228 96 17 0 0 0 0
0 0 0 0 0 19 11 46 54 0 2 29 80 9 2 13 16 0 36 58 69 178 383 555 766 1215 1420 1507 1521 2131 2540 2276 1721 1214 698 185 1 0 0 1 0 0 0 0
0 0 0 0 0 2 13 99 45 3 24 1 1 1 1 3 8 20 61 71 261 359 526 1131 2488 2613 3172 2938 3089 2405 2053 1523 957 612 103 0 0 0 0 0 0 0 0 0
0 0 0 0 0 27 51 3 0 0 0 18 0 30 0 0 0 13 81 326 292 497 1610 2584 2725 3291 3328 3292 2843 2044 1547 899 457 171 0 0 0 0 0 1 2 0 0 0
0 0 0 0 5 8 0 0 0 20 18 1 0 25 0 5 1 23 113 289 234 1422 2501 2786 3060 3324 3331 2838 1968 1506 936 385 135 0 0 0 0 0 0 0 0 0 0 0
0 0 0 0 0 0 0 0 0 46 14 9 0 0 0 1 1 49 108 212 690 2455 2863 3091 3238 3270 3094 2090 1388 852 435 202 44 0 0 0 0 0 0 0 0 0 0 0
0 0 0 0 0 0 6 0 3 11 21 0 0 0 1 85 0 21 35 217 1825 2730 2966 3107 3195 3122 2720 1506 806 451 271 115 55 2 0 0 0 0 0 0 0 0 0 0
0 0 0 0 0 0 0 0 0 4 50 51 14 0 10 5 0 26 90 582 2358 2809 2888 3137 3090 2779 1614 838 441 332 261 95 106 61 13 0 0 0 0 0 0 0 0 0
0 0 0 0 0 0 0 0 5 1 30 26 3 8 4 0 3 26 85 1799 2729 2699 2899 3081 2928 1700 923 513 372 350 314 229 241 111 30 1 0 0 0 0 0 0 0 0
0 0 0 0 0 0 0 0 0 0 1 0 0 0 9 11 51 43 208 2499 2590 2598 2859 2948 2011 1029 574 393 318 388 277 231 183 64 0 0 0 0 0 0 0 0 0 0
0 0 0 0 0 0 0 0 1 0 0 0 1 0 1 14 31 68 756 2342 2518 2787 2853 2433 1243 730 454 374 400 328 271 236 112 4 0 0 0 0 0 0 0 0 0 0
0 0 0 0 0 0 0 0 0 0 2 0 6 2 0 4 1 220 1662 2419 2621 2793 2472 1311 921 643 474 418 341 259 215 146 21 0 0 0 0 0 0 0 0 0 0 0
0 0 0 0 0 0 0 0 0 0 2 5 15 17 0 78 92 1480 2226 2438 2727 2643 1494 1077 824 630 603 409 268 164 130 14 0 0 0 0 0 0 0 0 0 0 0 0
0 0 0 0 0 0 0 3 9 0 0 119 184 322 270 11 1387 2303 2227 2386 2630 1996 1090 881 692 638 584 433 142 82 88 0 0 0 0 0 0 0 0 0 0 0 0 0